Time,TemperatureF,DewpointF,PressureIn,WindDirection,WindDirectionDegrees,WindSpeedMPH,WindSpeedGustMPH,Humidity,HourlyPrecipIn,Conditions,Clouds,dailyrainin,SoftwareType,DateUTC
2013-12-09 00:23:00,33.0,25.0,30.45,NE,55,0.0,5.0,72,0.00,,,0.00,,2013-12-09 05:23:00,
2013-12-09 00:33:00,33.0,25.0,30.45,NE,55,0.0,5.0,72,0.00,,,0.00,,2013-12-09 05:33:00,
2013-12-09 00:42:00,33.0,25.0,30.45,NE,55,0.0,5.0,72,0.00,,,0.00,,2013-12-09 05:42:00,
2013-12-09 00:53:00,33.0,25.0,30.45,NE,42,0.0,6.0,73,0.00,,,0.00,,2013-12-09 05:53:00,
2013-12-09 01:22:00,33.0,26.0,30.44,ENE,76,0.0,5.0,76,0.00,,,0.00,,2013-12-09 06:22:00,
2013-12-09 01:52:00,33.0,27.0,30.43,NE,53,1.0,6.0,79,0.00,,,0.00,,2013-12-09 06:52:00,
2013-12-09 02:03:00,33.0,27.0,30.43,NE,53,1.0,6.0,79,0.00,,,0.00,,2013-12-09 07:03:00,
2013-12-09 02:22:00,32.0,29.0,30.41,ENE,70,0.0,4.0,89,0.00,,,0.00,,2013-12-09 07:22:00,
2013-12-09 02:42:00,32.0,29.0,30.41,ENE,59,1.0,5.0,90,0.00,,,0.00,,2013-12-09 07:42:00,
2013-12-09 02:52:00,32.0,30.0,30.41,East,89,0.0,5.0,91,0.00,,,0.00,,2013-12-09 07:52:00,
2013-12-09 03:21:00,32.0,30.0,30.39,NE,48,0.0,2.0,94,0.00,,,0.00,,2013-12-09 08:21:00,
2013-12-09 03:22:00,32.0,30.0,30.40,ENE,64,0.0,0.0,92,0.00,,,0.00,,2013-12-09 08:22:00,
2013-12-09 03:32:00,32.0,30.0,30.40,ENE,64,0.0,0.0,92,0.00,,,0.00,,2013-12-09 08:32:00,
2013-12-09 03:52:00,32.0,30.0,30.39,NE,48,0.0,2.0,94,0.00,,,0.00,,2013-12-09 08:52:00,
2013-12-09 04:02:00,32.0,30.0,30.39,NE,48,0.0,2.0,94,0.00,,,0.00,,2013-12-09 09:02:00,
2013-12-09 04:12:00,32.0,30.0,30.39,NE,48,0.0,2.0,94,0.00,,,0.00,,2013-12-09 09:12:00,
2013-12-09 04:54:00,33.0,32.0,30.36,NE,38,0.0,4.0,96,0.00,,,0.00,,2013-12-09 09:54:00,
2013-12-09 05:04:00,33.0,32.0,30.36,NE,38,0.0,4.0,96,0.00,,,0.00,,2013-12-09 10:04:00,
2013-12-09 05:13:00,33.0,32.0,30.36,NE,38,0.0,4.0,96,0.00,,,0.00,,2013-12-09 10:13:00,
2013-12-09 05:23:00,33.0,32.0,30.36,NE,38,0.0,4.0,96,0.00,,,0.00,,2013-12-09 10:23:00,
2013-12-09 05:43:00,33.0,32.0,30.32,ESE,116,2.0,6.0,96,0.00,,,0.00,,2013-12-09 10:43:00,
2013-12-09 05:53:00,33.0,32.0,30.32,ENE,76,1.0,7.0,97,0.00,,,0.00,,2013-12-09 10:53:00,
2013-12-09 06:12:00,33.0,32.0,30.32,ENE,73,0.0,8.0,97,0.00,,,0.00,,2013-12-09 11:12:00,
2013-12-09 06:22:00,33.0,32.0,30.32,ENE,73,0.0,8.0,97,0.00,,,0.00,,2013-12-09 11:22:00,
2013-12-09 06:53:00,34.0,33.0,30.28,ESE,119,4.0,12.0,97,0.00,,,0.00,,2013-12-09 11:53:00,
2013-12-09 07:22:00,34.0,33.0,30.26,East,96,5.0,15.0,97,0.00,,,0.00,,2013-12-09 12:22:00,
2013-12-09 07:52:00,35.0,34.0,30.25,ESE,119,4.0,13.0,97,0.02,,,0.02,,2013-12-09 12:52:00,
2013-12-09 08:12:00,35.0,34.0,30.25,ESE,119,4.0,13.0,97,0.02,,,0.02,,2013-12-09 13:12:00,
2013-12-09 08:22:00,36.0,35.0,30.23,SE,126,8.0,15.0,98,0.00,,,0.05,,2013-12-09 13:22:00,
2013-12-09 08:32:00,36.0,35.0,30.23,SE,126,8.0,15.0,98,0.00,,,0.05,,2013-12-09 13:32:00,
2013-12-09 08:52:00,37.0,36.0,30.20,ESE,121,8.0,17.0,97,0.02,,,0.07,,2013-12-09 13:52:00,
2013-12-09 09:02:00,37.0,36.0,30.20,ESE,121,8.0,17.0,97,0.02,,,0.07,,2013-12-09 14:02:00,
2013-12-09 09:22:00,38.0,37.0,30.16,SE,132,10.0,23.0,97,0.00,,,0.09,,2013-12-09 14:22:00,
2013-12-09 09:32:00,38.0,37.0,30.16,SE,132,10.0,23.0,97,0.00,,,0.09,,2013-12-09 14:32:00,
2013-12-09 09:42:00,38.0,37.0,30.16,SE,132,10.0,23.0,97,0.00,,,0.09,,2013-12-09 14:42:00,
2013-12-09 09:52:00,38.0,37.0,30.14,SE,126,14.0,25.0,97,0.02,,,0.11,,2013-12-09 14:52:00,
2013-12-09 10:02:00,38.0,37.0,30.14,SE,126,14.0,25.0,97,0.02,,,0.11,,2013-12-09 15:02:00,
2013-12-09 10:12:00,38.0,37.0,30.14,SE,126,14.0,25.0,97,0.02,,,0.11,,2013-12-09 15:12:00,
2013-12-09 10:22:00,39.0,38.0,30.12,SE,126,8.0,24.0,96,0.00,,,0.14,,2013-12-09 15:22:00,
2013-12-09 10:53:00,40.0,39.0,30.07,SE,141,13.0,24.0,96,0.01,,,0.15,,2013-12-09 15:53:00,
2013-12-09 11:23:00,41.0,40.0,30.08,SE,142,3.0,24.0,96,0.01,,,0.22,,2013-12-09 16:23:00,
2013-12-09 11:43:00,41.0,40.0,30.09,SE,128,5.0,14.0,97,0.03,,,0.24,,2013-12-09 16:43:00,
2013-12-09 11:53:00,41.0,40.0,30.09,SE,128,5.0,14.0,97,0.03,,,0.24,,2013-12-09 16:53:00,
2013-12-09 12:23:00,42.0,41.0,30.06,SE,141,2.0,8.0,98,0.00,,,0.29,,2013-12-09 17:23:00,
2013-12-09 12:42:00,43.0,42.0,30.05,ESE,118,3.0,8.0,98,0.01,,,0.30,,2013-12-09 17:42:00,
2013-12-09 12:53:00,43.0,42.0,30.03,ESE,119,5.0,10.0,98,0.01,,,0.30,,2013-12-09 17:53:00,
2013-12-09 13:12:00,43.0,42.0,30.01,SE,129,4.0,10.0,98,0.02,,,0.31,,2013-12-09 18:12:00,
2013-12-09 13:22:00,44.0,43.0,29.98,ESE,120,4.0,8.0,98,0.00,,,0.31,,2013-12-09 18:22:00,
2013-12-09 13:43:00,44.0,43.0,29.98,ESE,123,3.0,7.0,98,0.01,,,0.32,,2013-12-09 18:43:00,
2013-12-09 13:52:00,44.0,43.0,29.98,ESE,123,3.0,7.0,98,0.01,,,0.32,,2013-12-09 18:52:00,
2013-12-09 14:12:00,45.0,45.0,29.95,ESE,113,2.0,8.0,99,0.01,,,0.32,,2013-12-09 19:12:00,
2013-12-09 14:22:00,45.0,45.0,29.95,ESE,113,2.0,8.0,99,0.01,,,0.32,,2013-12-09 19:22:00,
2013-12-09 14:53:00,46.0,46.0,29.89,SSE,164,3.0,11.0,99,0.00,,,0.33,,2013-12-09 19:53:00,
2013-12-09 15:02:00,46.0,46.0,29.89,SSE,164,3.0,11.0,99,0.00,,,0.33,,2013-12-09 20:02:00,
2013-12-09 15:22:00,47.0,47.0,29.87,SE,146,3.0,10.0,99,0.00,,,0.33,,2013-12-09 20:22:00,
2013-12-09 15:53:00,47.0,47.0,29.85,SE,137,4.0,13.0,99,0.01,,,0.34,,2013-12-09 20:53:00,
2013-12-09 16:02:00,47.0,47.0,29.85,SE,137,4.0,13.0,99,0.01,,,0.34,,2013-12-09 21:02:00,
2013-12-09 16:22:00,47.0,47.0,29.85,SE,146,1.0,4.0,99,0.00,,,0.34,,2013-12-09 21:22:00,
2013-12-09 16:44:00,47.0,47.0,29.85,SE,145,0.0,3.0,99,0.00,,,0.34,,2013-12-09 21:44:00,
2013-12-09 16:53:00,47.0,47.0,29.85,SE,145,0.0,0.0,99,0.00,,,0.34,,2013-12-09 21:53:00,
2013-12-09 17:03:00,47.0,47.0,29.85,SE,145,0.0,0.0,99,0.00,,,0.34,,2013-12-09 22:03:00,
2013-12-09 17:23:00,46.0,46.0,29.85,NNW,331,2.0,9.0,99,0.00,,,0.34,,2013-12-09 22:23:00,
2013-12-09 17:33:00,46.0,46.0,29.85,NNW,331,2.0,9.0,99,0.00,,,0.34,,2013-12-09 22:33:00,
2013-12-09 17:43:00,46.0,46.0,29.85,NNW,331,2.0,9.0,99,0.00,,,0.34,,2013-12-09 22:43:00,
2013-12-09 17:53:00,45.0,44.0,29.84,NNW,338,0.0,6.0,98,0.00,,,0.34,,2013-12-09 22:53:00,
2013-12-09 18:02:00,45.0,44.0,29.84,NNW,338,0.0,6.0,98,0.00,,,0.34,,2013-12-09 23:02:00,
2013-12-09 18:22:00,45.0,45.0,29.85,NW,311,1.0,5.0,99,0.00,,,0.34,,2013-12-09 23:22:00,
2013-12-09 18:33:00,45.0,45.0,29.85,NW,311,1.0,5.0,99,0.00,,,0.34,,2013-12-09 23:33:00,
2013-12-09 18:53:00,45.0,45.0,29.85,WNW,294,0.0,4.0,99,0.00,,,0.34,,2013-12-09 23:53:00,
2013-12-09 19:02:00,45.0,45.0,29.85,WNW,294,0.0,4.0,99,0.00,,,0.34,,2013-12-10 00:02:00,
2013-12-09 19:22:00,45.0,45.0,29.85,West,260,1.0,10.0,99,0.00,,,0.34,,2013-12-10 00:22:00,
2013-12-09 19:42:00,45.0,45.0,29.85,West,280,3.0,10.0,99,0.00,,,0.34,,2013-12-10 00:42:00,
2013-12-09 19:53:00,45.0,45.0,29.86,WNW,285,3.0,9.0,99,0.00,,,0.34,,2013-12-10 00:53:00,
2013-12-09 20:02:00,45.0,45.0,29.86,WNW,285,3.0,9.0,99,0.00,,,0.34,,2013-12-10 01:02:00,
2013-12-09 20:22:00,45.0,45.0,29.87,WNW,292,4.0,16.0,99,0.00,,,0.34,,2013-12-10 01:22:00,
2013-12-09 20:32:00,45.0,45.0,29.87,WNW,292,4.0,16.0,99,0.00,,,0.34,,2013-12-10 01:32:00,
2013-12-09 20:52:00,44.0,44.0,29.87,WNW,291,5.0,13.0,99,0.00,,,0.34,,2013-12-10 01:52:00,
2013-12-09 21:22:00,44.0,44.0,29.87,WNW,296,5.0,15.0,99,0.00,,,0.35,,2013-12-10 02:22:00,
2013-12-09 21:32:00,44.0,44.0,29.87,WNW,296,5.0,15.0,99,0.00,,,0.35,,2013-12-10 02:32:00,
2013-12-09 21:42:00,44.0,44.0,29.87,WNW,296,5.0,15.0,99,0.00,,,0.35,,2013-12-10 02:42:00,
2013-12-09 21:52:00,43.0,43.0,29.88,WNW,299,8.0,16.0,99,0.00,,,0.35,,2013-12-10 02:52:00,
2013-12-09 22:22:00,42.0,42.0,29.88,NW,307,6.0,15.0,99,0.00,,,0.35,,2013-12-10 03:22:00,
2013-12-09 22:43:00,42.0,41.0,29.88,WNW,302,7.0,14.0,98,0.00,,,0.35,,2013-12-10 03:43:00,
2013-12-09 22:54:00,42.0,41.0,29.88,WNW,302,7.0,14.0,98,0.00,,,0.35,,2013-12-10 03:54:00,
2013-12-09 23:13:00,41.0,40.0,29.90,NW,308,8.0,14.0,97,0.00,,,0.35,,2013-12-10 04:13:00,
2013-12-09 23:23:00,41.0,40.0,29.90,NW,308,8.0,14.0,97,0.00,,,0.35,,2013-12-10 04:23:00,
2013-12-09 23:53:00,39.0,38.0,29.90,NW,307,3.0,13.0,96,0.00,,,0.35,,2013-12-10 04:53:00,